Fremont, NE

12:32 AM CDT on July 21, 2017 (GMT -0500)
Fremont Municipal

Weather History for KFET - June, 2012

Change the Weather History Date:

Monday, June 4, 2012

  Actual Average Record
Temperature  
Mean Temperature 76 °F -  
Max Temperature 89 °F 81 °F 98 °F (1958)
Min Temperature 63 °F 57 °F 40 °F (1951)
Cooling Degree Days 11    
Growing Degree Days 26 (Base 50)    
Moisture  
Dew Point 53 °F    
Average Humidity 47    
Maximum Humidity 84    
Minimum Humidity 22    
Precipitation  
Precipitation 0.01 in - - ()
Sea Level Pressure  
Sea Level Pressure 29.91 in    
Wind  
Wind Speed 4 mph (NNW)    
Max Wind Speed 12 mph    
Max Gust Speed 18 mph    
Visibility 10 miles    
Events      
Averages and records for this station are not official NWS values.
T = Trace of Precipitation, MM = Missing Value Source: NWS Daily Summary

Daily Weather History Graph

Daily Weather History Graph

Search for Another Location

Airport or City:

Trip Planner

Search our weather history database for the weather conditions in past years. The results will help you decide how hot, cold, wet, or windy it might be!

Date:

Astronomy

Jun. 04, 2012 Rise Set
Actual Time 5:53 AM CDT 8:55 PM CDT
Civil Twilight 5:19 AM CDT 9:29 PM CDT
Nautical Twilight 4:37 AM CDT 10:12 PM CDT
Astronomical Twilight 3:47 AM CDT 11:02 PM CDT
Moon 9:26 PM CDT (6/4) 6:01 AM CDT (6/4)
Length of Visible Light 16h 09m
Length of Day
15h 02m
Full, 100% of the Moon is Illuminated
Jun 4
Full
Jun 11
Last Quarter
Jun 19
New
Jun 26
First Quarter
Jul 3
Full

Hourly Weather History & Observations

Time (CDT) Temp. Heat Index Dew Point Humidity Pressure Visibility Wind Dir Wind Speed Gust Speed Precip Events Conditions
12:15 AM 73.9 °F - 60.8 °F 63% 29.83 in 10.0 mi Calm Calm - N/A   Clear
12:35 AM 72.0 °F - 60.6 °F 67% 29.84 in 10.0 mi WNW 4.6 mph - N/A   Clear
12:55 AM 73.8 °F - 59.2 °F 60% 29.84 in 10.0 mi NW 3.5 mph - N/A   Clear
1:15 AM 72.3 °F - 59.0 °F 63% 29.84 in 10.0 mi NW 3.5 mph - N/A   Clear
1:35 AM 71.2 °F - 59.0 °F 65% 29.84 in 10.0 mi Calm Calm - N/A   Clear
1:55 AM 70.9 °F - 58.8 °F 66% 29.84 in 10.0 mi NW 4.6 mph - N/A   Clear
2:15 AM 68.4 °F - 58.8 °F 71% 29.84 in 10.0 mi Calm Calm - N/A   Clear
2:35 AM 67.6 °F - 59.0 °F 74% 29.84 in 10.0 mi WNW 4.6 mph - N/A   Clear
2:55 AM 67.3 °F - 58.6 °F 74% 29.84 in 10.0 mi WNW 3.5 mph - N/A   Clear
3:15 AM 66.4 °F - 58.5 °F 76% 29.84 in 10.0 mi Calm Calm - N/A   Clear
3:35 AM 66.4 °F - 58.3 °F 75% 29.84 in 10.0 mi Calm Calm - N/A   Clear
3:55 AM 66.4 °F - 58.3 °F 75% 29.84 in 10.0 mi West 3.5 mph - N/A   Clear
4:15 AM 65.8 °F - 58.3 °F 77% 29.85 in 10.0 mi West 4.6 mph - N/A   Clear
4:35 AM 66.6 °F - 58.3 °F 75% 29.85 in 10.0 mi West 3.5 mph - N/A   Clear
4:55 AM 65.8 °F - 58.1 °F 76% 29.86 in 10.0 mi West 4.6 mph - N/A   Clear
5:15 AM 63.5 °F - 58.1 °F 83% 29.86 in 10.0 mi WNW 5.8 mph - N/A   Clear
5:35 AM 63.9 °F - 58.5 °F 83% 29.86 in 10.0 mi West 4.6 mph - N/A   Clear
5:55 AM 63.5 °F - 58.5 °F 84% 29.86 in 10.0 mi West 6.9 mph - N/A   Clear
6:15 AM 64.2 °F - 58.5 °F 82% 29.87 in 10.0 mi WNW 4.6 mph - N/A   Clear
6:35 AM 65.5 °F - 59.0 °F 80% 29.88 in 10.0 mi WSW 3.5 mph - N/A   Clear
6:55 AM 67.5 °F - 59.5 °F 76% 29.89 in 10.0 mi West 3.5 mph - N/A   Clear
7:15 AM 68.9 °F - 60.3 °F 74% 29.90 in 10.0 mi Calm Calm - N/A   Clear
7:35 AM 70.3 °F - 60.8 °F 72% 29.92 in 10.0 mi West 3.5 mph - N/A   Clear
7:55 AM 73.0 °F - 59.2 °F 62% 29.93 in 10.0 mi NNW 6.9 mph - N/A   Clear
8:15 AM 73.9 °F - 59.0 °F 59% 29.93 in 10.0 mi North 6.9 mph - N/A   Clear
8:35 AM 75.2 °F - 58.1 °F 55% 29.94 in 10.0 mi North 6.9 mph - N/A   Clear
8:55 AM 76.1 °F - 58.3 °F 54% 29.94 in 10.0 mi NNE 5.8 mph - N/A   Clear
9:15 AM 77.2 °F - 57.9 °F 51% 29.94 in 10.0 mi NNE 4.6 mph - N/A   Clear
9:35 AM 78.8 °F - 57.2 °F 47% 29.94 in 10.0 mi NNE 8.1 mph - N/A   Clear
9:55 AM 79.7 °F - 56.5 °F 45% 29.95 in 10.0 mi North 6.9 mph - N/A   Clear
10:15 AM 80.4 °F 80.5 °F 55.9 °F 43% 29.96 in 10.0 mi North 6.9 mph - N/A   Clear
10:35 AM 81.5 °F 81.0 °F 54.9 °F 40% 29.96 in 10.0 mi NNE 8.1 mph - N/A   Clear
10:55 AM 82.4 °F 81.7 °F 55.2 °F 39% 29.96 in 10.0 mi NNE 9.2 mph - N/A   Clear
11:15 AM 82.8 °F 81.6 °F 53.2 °F 36% 29.96 in 10.0 mi NE 9.2 mph 16.1 mph N/A   Clear
11:35 AM 83.3 °F - 52.3 °F 34% 29.96 in 10.0 mi North 11.5 mph 17.3 mph N/A   Clear
11:55 AM 83.8 °F - 51.8 °F 33% 29.96 in 10.0 mi NE 11.5 mph 16.1 mph N/A   Clear
12:15 PM 84.2 °F - 51.6 °F 32% 29.96 in 10.0 mi NNE 10.4 mph 17.3 mph N/A   Clear
12:35 PM 85.1 °F - 51.6 °F 31% 29.96 in 10.0 mi North 10.4 mph 18.4 mph N/A   Clear
12:55 PM 85.3 °F - 49.8 °F 29% 29.96 in 10.0 mi NE 9.2 mph 16.1 mph N/A   Clear
1:15 PM 85.3 °F - 51.3 °F 31% 29.96 in 10.0 mi North 9.2 mph - N/A   Clear
1:35 PM 86.0 °F - 50.9 °F 30% 29.96 in 10.0 mi NNW 11.5 mph - N/A   Clear
1:55 PM 86.4 °F - 49.3 °F 28% 29.94 in 10.0 mi North 6.9 mph 16.1 mph N/A   Clear
2:15 PM 86.9 °F - 49.3 °F 27% 29.94 in 10.0 mi North 6.9 mph - N/A   Clear
2:35 PM 86.7 °F - 50.0 °F 28% 29.94 in 10.0 mi NE 3.5 mph - N/A   Clear
2:55 PM 87.8 °F - 50.4 °F 27% 29.93 in 7.0 mi NNW 5.8 mph - N/A   Clear
3:15 PM 88.0 °F - 48.0 °F 25% 29.93 in 10.0 mi NNW 5.8 mph - N/A   Clear
3:35 PM 88.0 °F - 49.5 °F 26% 29.93 in 10.0 mi NNW 6.9 mph - N/A   Clear
3:55 PM 88.5 °F - 48.0 °F 25% 29.93 in 7.0 mi North 6.9 mph - N/A   Clear
4:15 PM 88.7 °F - 45.9 °F 23% 29.92 in 10.0 mi NNE 3.5 mph - N/A   Clear
4:35 PM 88.7 °F - 45.9 °F 23% 29.92 in 10.0 mi North 9.2 mph - N/A   Clear
4:55 PM 89.4 °F - 45.3 °F 22% 29.92 in 10.0 mi North 8.1 mph 16.1 mph N/A   Clear
5:15 PM 88.7 °F - 45.5 °F 22% 29.92 in 10.0 mi North 4.6 mph - N/A   Clear
5:35 PM 88.3 °F - 45.9 °F 23% 29.91 in 10.0 mi North 5.8 mph - N/A   Clear
5:55 PM 88.7 °F - 46.2 °F 23% 29.91 in 10.0 mi NNW 4.6 mph - N/A   Clear
6:15 PM 88.5 °F - 44.6 °F 22% 29.91 in 10.0 mi NNW 8.1 mph - N/A   Clear
6:35 PM 88.0 °F - 44.8 °F 22% 29.91 in 10.0 mi North 8.1 mph - N/A   Clear
6:55 PM 87.4 °F - 45.1 °F 23% 29.90 in 10.0 mi North 8.1 mph - N/A   Clear
7:15 PM 87.1 °F - 45.1 °F 23% 29.90 in 10.0 mi North 5.8 mph - N/A   Clear
7:35 PM 86.4 °F - 46.2 °F 25% 29.90 in 10.0 mi North 3.5 mph - N/A   Clear
7:55 PM 85.3 °F - 47.7 °F 27% 29.91 in 10.0 mi North 4.6 mph - N/A   Clear
8:15 PM 84.2 °F - 48.7 °F 29% 29.90 in 10.0 mi Calm Calm - N/A   Clear
8:35 PM 82.9 °F - 48.6 °F 30% 29.90 in 10.0 mi North 3.5 mph - N/A   Clear
8:55 PM 81.3 °F - 48.6 °F 32% 29.90 in 10.0 mi Calm Calm - N/A   Clear
9:15 PM 79.7 °F - 48.4 °F 33% 29.91 in 10.0 mi Calm Calm - N/A   Clear
9:35 PM 78.6 °F - 48.7 °F 35% 29.92 in 10.0 mi Calm Calm - N/A   Clear
9:55 PM 76.8 °F - 49.5 °F 38% 29.92 in 10.0 mi Calm Calm - N/A   Clear
10:15 PM 73.4 °F - 51.3 °F 46% 29.93 in 10.0 mi Calm Calm - N/A   Clear
10:35 PM 73.6 °F - 51.8 °F 46% 29.94 in 10.0 mi Calm Calm - N/A   Clear
10:55 PM 72.0 °F - 53.2 °F 52% 29.94 in 10.0 mi Calm Calm - N/A   Clear
11:35 PM 70.0 °F - 52.9 °F 55% 29.94 in 10.0 mi Calm Calm - N/A   Clear